Location: Newark
(54.6833°N, 25.2833°E)
Time: 11:18:15
(UTC+00:00)

S-56A Canister/Altair - All Passes

Search period start: 21 January 2021 00:00
Search period end: 31 January 2021 00:00
Orbit: 633 x 2499 km, 38.9° (Epoch: 20 January)

Date Brightness Start Highest point End Pass type
(mag) Time Alt. Az. Time Alt. Az. Time Alt. Az.
21 Jan - 02:46:18 10° S 02:48:16 12° SSE 02:50:22 10° SE visible
21 Jan - 04:47:35 10° SW 04:50:41 15° S 04:54:19 10° SSE visible
22 Jan - 02:14:40 10° S 02:15:49 11° SSE 02:17:00 10° SSE visible
22 Jan - 04:15:24 10° SW 04:18:11 15° S 04:21:20 10° SSE visible
23 Jan - 03:43:15 10° SSW 03:45:41 14° S 03:48:24 10° SSE visible
24 Jan - 03:11:05 10° SSW 03:13:13 13° S 03:15:31 10° SSE visible
25 Jan - 02:38:55 10° SSW 02:40:46 12° S 02:42:41 10° SSE visible
26 Jan - 02:06:45 10° SSW 02:08:18 12° S 02:09:55 10° SSE visible
27 Jan - 01:34:32 10° SSW 01:35:51 11° S 01:37:12 10° SSE visible
28 Jan - 01:02:14 10° S 01:03:24 11° S 01:04:34 10° SSE night (unlit)
29 Jan - 00:29:51 10° S 00:30:57 11° S 00:32:02 10° SSE night (unlit)
29 Jan - 23:57:21 10° S 23:58:29 11° S 23:59:36 10° SSE night (unlit)
30 Jan - 23:24:43 10° S 23:26:01 11° S 23:27:17 10° SSE night (unlit)
